Location: Tel Aviv
(32.0670°N, 34.7670°E)
Time: 10:39:22
(UTC+02:00)

Explorer 7 - Visible Passes

Search period start: 05 December 2023 00:00
Search period end: 15 December 2023 00:00
Orbit: 472 x 640 km, 50.3° (Epoch: 05 December)

Date Brightness Start Highest point End Pass type
(mag) Time Alt. Az. Time Alt. Az. Time Alt. Az.
11 Dec 9.2 18:23:23 10° NNW 18:23:32 11° NNW 18:23:32 11° NNW visible
12 Dec 8.7 18:19:24 10° NNW 18:20:30 16° NNW 18:20:30 16° NNW visible
13 Dec 7.9 18:15:32 10° NNW 18:17:38 27° N 18:17:38 27° N visible
14 Dec 6.6 18:11:42 10° NW 18:15:03 56° NNE 18:15:03 56° NNE visible
